STARLINK-1113 (44926 NORAD) Tracking and Keplerian Element Data

This shows tracking and keplerian element data for the satellite.

Feedback or suggestion? Click here.




ElementValue
Catalog44926
NameSTARLINK-1113
Epoch Orbit1317
Epoch Day88.25001157
Epoch Year2020
RAAN19.0485
Inclination53.0057
Eccentricity0.0002406
Argument of Perigee66.7373
Mean Anonmoly172.2149
Mean Motion15.05541005
Decay Rate0.00044299
L11 44926U 20001N 20088.25001157 .00044299 00000-0 30436-2 0 9993
L22 44926 53.0057 19.0485 0002406 66.7373 172.2149 15.05541005 13172

Live tracking and technical data element details for STARLINK-1113 (NORAD 44926). STARLINK-1113 can be tracked NOW for your location showing map with azimuth and elevation plus other details from your city location.

Track the satellite on the map from your city or location and see movement details for azimuth, elevation, latitude, longitude, range, height, and movement on the map or in text.







IsCatalogInMostPopularTable: catalog: 44926, numindb: 24
Update: records affected: 1



GetName: 44926 STARLINK-1113

Hit Count: updated at: Sat, 28 Mar 2020 21:46:04 GMT